�������l�o���
Date,Time,MP-1(��Sv/h),MP-2(��Sv/h),MP-3(��Sv/h),MP-4(��Sv/h),MP-5(��Sv/h),MP-6(��Sv/h),MP-7(��Sv/h),����,����(m/s),���J
2013/10/27,00:00,0.8,0.5,0.8,0.7,0.7,0.3,0.3,�k�k��,4.6,��
2013/10/27,00:10,0.8,0.5,0.8,0.7,0.7,0.3,0.3,�k,4.8,��
2013/10/27,00:20,0.8,0.5,0.8,0.7,0.7,0.3,0.3,�k�k��,3.9,��
2013/10/27,00:30,0.8,0.5,0.8,0.7,0.7,0.3,0.3,�k,3.4,��
2013/10/27,00:40,0.8,0.5,0.8,0.7,0.7,0.3,0.3,�k,3.4,��
2013/10/27,00:50,0.8,0.5,0.8,0.7,0.7,0.3,0.3,�k�k��,2.6,��
2013/10/27,01:00,0.8,0.5,0.8,0.7,0.7,0.3,0.3,�k,3.0,��
2013/10/27,01:10,0.8,0.5,0.8,0.7,0.7,0.3,0.3,�k,2.3,��
2013/10/27,01:20,0.8,0.5,0.8,0.7,0.7,0.3,0.3,�k,2.2,��
2013/10/27,01:30,0.8,0.5,0.8,0.7,0.7,0.3,0.3,�k,1.9,��
2013/10/27,01:40,0.8,0.5,0.8,0.7,0.7,0.3,0.3,�k,2.7,��
2013/10/27,01:50,0.8,0.5,0.8,0.7,0.7,0.3,0.3,�k�k��,1.7,��
2013/10/27,02:00,0.8,0.5,0.8,0.7,0.7,0.3,0.3,�k�k��,1.1,��
2013/10/27,02:10,0.8,0.5,0.8,0.7,0.7,0.3,0.3,�k��,2.2,��
2013/10/27,02:20,0.8,0.5,0.8,0.7,0.7,0.3,0.3,�k��,3.2,��
2013/10/27,02:30,0.8,0.5,0.8,0.7,0.7,0.3,0.3,�k,3.3,��
2013/10/27,02:40,0.8,0.5,0.8,0.7,0.7,0.3,0.3,�k,3.1,��
2013/10/27,02:50,0.8,0.5,0.8,0.7,0.7,0.3,0.3,�k�k��,3.1,��
2013/10/27,03:00,0.8,0.5,0.8,0.8,0.7,0.3,0.3,�k��,3.9,��
2013/10/27,03:10,0.8,0.5,0.8,0.8,0.7,0.3,0.3,�k��,2.8,��
2013/10/27,03:20,0.8,0.5,0.8,0.7,0.7,0.3,0.3,�k�k��,3.4,��
2013/10/27,03:30,0.8,0.5,0.8,0.7,0.7,0.3,0.3,�k,2.7,��
2013/10/27,03:40,0.8,0.5,0.8,0.7,0.7,0.3,0.3,�k�k��,2.8,��
2013/10/27,03:50,0.8,0.5,0.8,0.7,0.7,0.3,0.3,�k,3.2,��
2013/10/27,04:00,0.8,0.5,0.8,0.7,0.7,0.3,0.3,�k,3.8,��
2013/10/27,04:10,0.8,0.5,0.8,0.7,0.7,0.3,0.3,�k��,2.8,��
2013/10/27,04:20,0.8,0.5,0.8,0.7,0.7,0.3,0.3,���k��,2.1,��
2013/10/27,04:30,0.8,0.5,0.8,0.8,0.7,0.3,0.3,�k��,2.2,��
2013/10/27,04:40,0.8,0.5,0.8,0.8,0.7,0.3,0.3,���k��,1.6,��
2013/10/27,04:50,0.8,0.5,0.8,0.7,0.7,0.3,0.3,���쐼,2.6,��
2013/10/27,05:00,0.8,0.5,0.8,0.7,0.7,0.3,0.3,��,3.5,��
2013/10/27,05:10,0.8,0.5,0.8,0.8,0.7,0.3,0.3,��,2.8,��
2013/10/27,05:20,0.8,0.5,0.8,0.8,0.7,0.3,0.3,��,2.5,��
2013/10/27,05:30,0.8,0.5,0.8,0.7,0.7,0.3,0.3,���k��,3.6,��
2013/10/27,05:40,0.8,0.5,0.8,0.7,0.7,0.3,0.3,��,3.8,��
2013/10/27,05:50,0.8,0.5,0.8,0.7,0.7,0.3,0.3,��,2.8,��
2013/10/27,06:00,0.8,0.5,0.8,0.8,0.7,0.3,0.3,���k��,2.7,��
2013/10/27,06:10,0.8,0.5,0.8,0.8,0.7,0.3,0.3,��,2.8,��
2013/10/27,06:20,0.8,0.5,0.8,0.8,0.7,0.3,0.3,���쐼,1.6,��
2013/10/27,06:30,0.8,0.5,0.8,0.8,0.7,0.3,0.3,��,3.0,��
2013/10/27,06:40,0.8,0.5,0.8,0.7,0.7,0.3,0.3,���쐼,3.8,��
2013/10/27,06:50,0.8,0.5,0.8,0.8,0.7,0.3,0.3,��,2.8,��
2013/10/27,07:00,0.8,0.5,0.8,0.7,0.7,0.3,0.3,���k��,2.8,��
2013/10/27,07:10,0.8,0.5,0.8,0.7,0.7,0.3,0.3,��,4.2,��
2013/10/27,07:20,0.8,0.5,0.8,0.8,0.7,0.3,0.3,���k��,4.6,��
2013/10/27,07:30,0.8,0.5,0.8,0.8,0.7,0.3,0.3,�k��,3.9,��
2013/10/27,07:40,0.8,0.5,0.8,0.8,0.7,0.3,0.3,�k�k��,1.9,��
2013/10/27,07:50,0.8,0.5,0.8,0.8,0.7,0.3,0.3,���k��,2.1,��
2013/10/27,08:00,0.8,0.5,0.8,0.8,0.7,0.3,0.3,��,1.9,��
2013/10/27,08:10,0.8,0.5,0.8,0.8,0.7,0.3,0.3,���쓌,1.1,��
2013/10/27,08:20,0.8,0.5,0.8,0.8,0.7,0.3,0.3,�k�k��,1.6,��
2013/10/27,08:30,0.8,0.5,0.8,0.8,0.7,0.3,0.3,�k��,2.9,��
2013/10/27,08:40,0.8,0.5,0.8,0.8,0.7,0.3,0.3,���k��,4.2,��
2013/10/27,08:50,0.8,0.5,0.8,0.8,0.7,0.3,0.3,���k��,7.9,��
2013/10/27,09:00,0.8,0.5,0.8,0.8,0.7,0.3,0.3,���k��,7.3,��
2013/10/27,09:10,0.8,0.5,0.8,0.8,0.7,0.3,0.3,���k��,9.4,��
2013/10/27,09:20,0.8,0.5,0.8,0.8,0.7,0.3,0.3,�k��,6.4,��
2013/10/27,09:30,0.8,0.5,0.8,0.8,0.7,0.3,0.3,���k��,8.0,��
2013/10/27,09:40,0.8,0.5,0.8,0.8,0.7,0.3,0.3,�k��,10.6,��
2013/10/27,09:50,0.8,0.5,0.8,0.8,0.7,0.3,0.3,���k��,9.8,��
2013/10/27,10:00,0.8,0.5,0.8,0.8,0.7,0.3,0.3,���k��,11.2,��
2013/10/27,10:10,0.8,0.5,0.8,0.8,0.7,0.3,0.3,���k��,10.3,��
2013/10/27,10:20,0.8,0.5,0.8,0.8,0.7,0.3,0.3,���k��,9.8,��
2013/10/27,10:30,0.8,0.5,0.8,0.8,0.7,0.3,0.3,���k��,9.8,��
2013/10/27,10:40,0.8,0.5,0.8,0.8,0.7,0.3,0.3,��,11.0,��
2013/10/27,10:50,0.8,0.5,0.8,0.8,0.7,0.3,0.3,���k��,8.3,��
2013/10/27,11:00,0.8,0.5,0.8,0.8,0.7,0.3,0.3,���k��,6.4,��
2013/10/27,11:10,0.8,0.5,0.8,0.8,0.7,0.3,0.3,���k��,8.0,��
2013/10/27,11:20,0.8,0.5,0.8,0.8,0.7,0.3,0.3,���k��,9.5,��
2013/10/27,11:30,0.8,0.5,0.8,0.8,0.7,0.3,0.3,��,10.9,��
2013/10/27,11:40,0.8,0.5,0.8,0.8,0.7,0.3,0.3,���k��,12.5,��
2013/10/27,11:50,0.8,0.5,0.8,0.8,0.7,0.3,0.3,��,12.9,��
2013/10/27,12:00,0.8,0.5,0.8,0.8,0.7,0.3,0.3,��,10.4,��
2013/10/27,12:10,0.8,0.5,0.8,0.8,0.7,0.3,0.3,��,10.7,��
2013/10/27,12:20,0.8,0.5,0.8,0.8,0.7,0.3,0.3,���k��,9.9,��
2013/10/27,12:30,0.8,0.5,0.8,0.8,0.7,0.3,0.3,��,12.3,��
2013/10/27,12:40,0.8,0.5,0.8,0.8,0.7,0.3,0.3,���k��,10.8,��
2013/10/27,12:50,0.8,0.5,0.8,0.8,0.7,0.3,0.3,���k��,9.2,��
2013/10/27,13:00,0.8,0.5,0.8,0.8,0.7,0.3,0.3,���k��,9.8,��
2013/10/27,13:10,0.8,0.5,0.8,0.8,0.7,0.3,0.3,��,9.7,��
2013/10/27,13:20,0.8,0.5,0.8,0.8,0.7,0.3,0.3,��,7.5,��
2013/10/27,13:30,0.8,0.5,0.8,0.8,0.7,0.3,0.3,���k��,7.8,��
2013/10/27,13:40,0.8,0.5,0.8,0.8,0.7,0.3,0.3,���k��,9.5,��
2013/10/27,13:50,0.8,0.5,0.8,0.8,0.7,0.3,0.3,���k��,9.2,��
2013/10/27,14:00,0.8,0.5,0.8,0.8,0.7,0.3,0.3,���k��,7.9,��
2013/10/27,14:10,0.8,0.5,0.8,0.8,0.7,0.3,0.3,���k��,11.0,��
2013/10/27,14:20,0.8,0.5,0.8,0.8,0.7,0.3,0.3,��,10.7,��
2013/10/27,14:30,0.8,0.5,0.8,0.8,0.7,0.3,0.3,���k��,5.4,��
2013/10/27,14:40,0.8,0.5,0.8,0.8,0.7,0.3,0.3,���k��,8.4,��
2013/10/27,14:50,0.8,0.5,0.8,0.8,0.7,0.3,0.3,���k��,9.3,��
2013/10/27,15:00,0.8,0.5,0.8,0.8,0.7,0.3,0.3,�k��,9.5,��
2013/10/27,15:10,0.8,0.5,0.8,0.8,0.7,0.3,0.3,���k��,5.6,��
2013/10/27,15:20,0.8,0.5,0.8,0.8,0.7,0.3,0.3,�k��,4.0,��
2013/10/27,15:30,0.8,0.5,0.8,0.8,0.7,0.3,0.3,�k�k��,2.4,��
2013/10/27,15:40,0.8,0.5,0.8,0.8,0.7,0.3,0.3,�k�k��,5.0,��
2013/10/27,15:50,0.8,0.5,0.8,0.8,0.7,0.3,0.3,�k��,4.4,��
2013/10/27,16:00,0.8,0.5,0.8,0.8,0.7,0.3,0.3,�k��,4.9,��
2013/10/27,16:10,0.8,0.5,0.8,0.8,0.7,0.3,0.3,�k��,5.9,��
2013/10/27,16:20,0.8,0.5,0.8,0.8,0.7,0.3,0.3,�k��,5.2,��
2013/10/27,16:30,0.8,0.5,0.8,0.8,0.7,0.3,0.3,�k��,4.2,��
2013/10/27,16:40,0.8,0.5,0.8,0.8,0.7,0.3,0.3,���k��,4.1,��
2013/10/27,16:50,0.8,0.5,0.8,0.8,0.7,0.3,0.3,���k��,5.6,��
2013/10/27,17:00,0.8,0.5,0.8,0.8,0.7,0.3,0.3,���k��,3.3,��
2013/10/27,17:10,0.8,0.5,0.8,0.8,0.7,0.4,0.3,���k��,4.2,��
2013/10/27,17:20,0.8,0.5,0.8,0.8,0.7,0.3,0.3,���k��,3.7,��
2013/10/27,17:30,0.8,0.5,0.8,0.8,0.7,0.4,0.3,���k��,3.1,��
2013/10/27,17:40,0.8,0.5,0.8,0.8,0.7,0.4,0.3,�k��,3.3,��
2013/10/27,17:50,0.8,0.5,0.8,0.8,0.7,0.3,0.3,�k��,3.5,��
2013/10/27,18:00,0.8,0.5,0.8,0.8,0.7,0.4,0.3,�k��,2.3,��
2013/10/27,18:10,0.8,0.5,0.8,0.8,0.7,0.3,0.3,�k�k��,1.9,��
2013/10/27,18:20,0.8,0.5,0.8,0.8,0.7,0.4,0.3,�k��,2.1,��
2013/10/27,18:30,0.8,0.5,0.8,0.8,0.7,0.4,0.3,�k��,2.5,��
2013/10/27,18:40,0.8,0.5,0.8,0.8,0.7,0.3,0.3,�k�k��,2.2,��
2013/10/27,18:50,0.8,0.5,0.8,0.8,0.7,0.3,0.3,�k�k��,2.4,��
2013/10/27,19:00,0.8,0.5,0.8,0.8,0.7,0.4,0.3,�k�k��,1.9,��
2013/10/27,19:10,0.8,0.5,0.8,0.8,0.7,0.4,0.3,�k�k��,1.9,��
2013/10/27,19:20,0.8,0.5,0.8,0.8,0.7,0.4,0.3,�k��,1.4,��
2013/10/27,19:30,0.8,0.5,0.8,0.8,0.7,0.4,0.3,�k��,1.7,��
2013/10/27,19:40,0.8,0.5,0.8,0.8,0.7,0.3,0.3,�k,1.9,��
2013/10/27,19:50,0.8,0.5,0.8,0.8,0.7,0.3,0.3,�k�k��,1.7,��
2013/10/27,20:00,0.8,0.5,0.8,0.8,0.7,0.4,0.3,�k�k��,2.8,��
2013/10/27,20:10,0.8,0.5,0.8,0.8,0.7,0.3,0.3,�k�k��,2.6,��
2013/10/27,20:20,0.8,0.5,0.8,0.8,0.7,0.4,0.3,�k�k��,2.4,��
2013/10/27,20:30,0.8,0.5,0.8,0.8,0.7,0.4,0.3,�k�k��,2.2,��
2013/10/27,20:40,0.8,0.5,0.8,0.8,0.7,0.3,0.3,�k��,1.2,��
2013/10/27,20:50,0.8,0.5,0.8,0.8,0.7,0.3,0.3,�k��,0.6,��
2013/10/27,21:00,0.8,0.5,0.8,0.8,0.7,0.3,0.3,�k�k��,0.5,��
2013/10/27,21:10,0.8,0.5,0.8,0.8,0.7,0.3,0.3,���k��,0.9,��
2013/10/27,21:20,0.8,0.5,0.8,0.8,0.7,0.3,0.3,��,0.6,��
2013/10/27,21:30,0.8,0.5,0.8,0.8,0.7,0.3,0.3,���k��,0.8,��
2013/10/27,21:40,0.8,0.5,0.8,0.8,0.7,0.3,0.3,���k��,1.3,��
2013/10/27,21:50,0.8,0.5,0.8,0.8,0.7,0.4,0.3,�k��,1.4,��
2013/10/27,22:00,0.8,0.5,0.8,0.8,0.7,0.4,0.3,���k��,2.1,��
2013/10/27,22:10,0.8,0.5,0.8,0.8,0.7,0.3,0.3,��,1.8,��
2013/10/27,22:20,0.8,0.5,0.8,0.8,0.7,0.4,0.3,�k��,1.9,��
2013/10/27,22:30,0.8,0.5,0.8,0.8,0.7,0.3,0.3,�k�k��,1.8,��
2013/10/27,22:40,0.8,0.5,0.8,0.8,0.7,0.3,0.3,�k�k��,2.5,��
2013/10/27,22:50,0.8,0.5,0.8,0.8,0.7,0.3,0.3,�k�k��,4.1,��
2013/10/27,23:00,0.8,0.5,0.8,0.8,0.7,0.3,0.3,�k�k��,1.9,��
2013/10/27,23:10,0.8,0.5,0.8,0.8,0.7,0.4,0.3,�k�k��,2.5,��
2013/10/27,23:20,0.8,0.5,0.8,0.8,0.7,0.3,0.3,�k��,2.2,��
2013/10/27,23:30,0.8,0.5,0.8,0.8,0.7,0.3,0.3,���k��,2.9,��
2013/10/27,23:40,0.8,0.5,0.8,0.8,0.7,0.3,0.3,���k��,4.4,��
2013/10/27,23:50,0.8,0.5,0.8,0.8,0.7,0.3,0.3,��,4.6,��
